レナード彗星

C/2022 R3 ( Leonard )

English version
Home page
Updated on January 22, 2023

---------------------------------------------------------------------

・ プロフィール

発見日 2022年9月15日
発見光度 18.9等
発見者 Gregory J. Leonard (Mt. Lemmon)

・ 写真集

・ 軌道要素

Epoch 2023 Feb. 25.0 TT = JDT 2460000.5
T 2023 Mar. 5.06562 TT                                  Rudenko
q   5.1290200            (2000.0)            P               Q
z  -0.0001118      Peri.   72.83800     +0.19203670     -0.97649509
 +/-0.0000154      Node     8.23814     +0.41283977     -0.01009507
e   1.0005735      Incl.   43.08291     +0.89032872     +0.21530311
>From 137 observations 2022 Sept. 15-2023 Jan. 15, mean residual 0".6.

・ 光度変化

        m1 = 8.5 + 5 logΔ + 10.0 log r

---------------------------------------------------------------------

軌道要素はM.P.E.C. 2023-B57に掲載されたものです。
光度グラフはComet for Windowsで作成したものです。

---------------------------------------------------------------------

Copyright(C) Seiichi Yoshida (comet@aerith.net). All rights reserved.